STARLINK-31760 (59869 NORAD) Tracking and Keplerian Element Data

This shows tracking and keplerian element data for the satellite.

Feedback or suggestion? Click here.




ElementValue
Catalog59869
NameSTARLINK-31760
Epoch Orbit294
Epoch Day160.16667824
Epoch Year2024
RAAN328.0057
Inclination43.0019
Eccentricity0.0002819
Argument of Perigee287.0964
Mean Anonmoly191.4495
Mean Motion15.73615072
Decay Rate-0.01758247
L11 59869U 24098M 24160.16667824 -.01758247 00000+0 -13841-1 0 9996
L22 59869 43.0019 328.0057 0002819 287.0964 191.4495 15.73615072 2942



Live tracking and technical data element details for STARLINK-31760 (NORAD 59869). STARLINK-31760 can be tracked NOW for your location showing map with azimuth and elevation plus other details from your city location.







IsCatalogInMostPopularTable: catalog: 59869, numindb: 8
Update: records affected: 1



GetName: 59869 STARLINK-31760

Hit Count: updated at: Thu, 25 Jul 2024 00:23:30 GMT